Regional Weather Roundup
Issued by NWS

Home | Current Version | Previous Version | Text Only | Print | Product List | Glossary Off
Versions: 1 2 3 4 5 6 7 8 9 10 11 12 13 14 15 16 17 18 19 20 21 22 23 24 25 26 27 28 29 30 31 32 33 34 35 36 37 38 39 40 41 42 43 44 45 46 47 48 49 50

324
ASUS43 KFSD 230402
RWRSD

WEATHER ROUNDUP FOR SOUTH DAKOTA
NATIONAL WEATHER SERVICE SIOUX FALLS SD
1100 PM CDT SAT JUL 22 2017

NOTE: "FAIR" INDICATES FEW OR NO CLOUDS BELOW 12,000 FEET WITH NO
SIGNIFICANT WEATHER AND/OR OBSTRUCTIONS TO VISIBILITY.


SDZ001>005-009-010-012>017-230500-
NORTHWEST AND NORTH CENTRAL SOUTH DAKOTA

CITY           SKY/WX    TMP DP  RH WIND       PRES   REMARKS
BUFFALO          N/A     72  44  36 N12       30.02R
FAITH            N/A     70  44  39 N8        30.04R
MOBRIDGE       CLEAR     68  56  65 NE7       29.97R
$$

SDZ012>016-024>037-041>051-057-063-072>074-230500-
SOUTHWEST AND SOUTH CENTRAL SOUTH DAKOTA

CITY           SKY/WX    TMP DP  RH WIND       PRES   REMARKS
RAPID CTY ARPT CLEAR     71  42  35 NE12      30.08R
PIERRE         CLEAR     72  44  36 NE6       29.97R
CUSTER         CLEAR     67  37  33 E13       30.25R
PHILIP         CLEAR     75  40  28 NE5       30.01R
PINE RIDGE     CLEAR     67  60  78 E3        30.08R
SPEARFISH      FAIR      66  43  42 S10       30.14R
WINNER         FAIR      77  52  41 E7        29.98R
$$

SDZ004>011-016>023-039-040-230500-
NORTHEAST SOUTH DAKOTA

CITY           SKY/WX    TMP DP  RH WIND       PRES   REMARKS
ABERDEEN       CLEAR     70  58  65 N8        29.95R
WATERTOWN      CLEAR     74  59  59 NW13      29.91R
BROOKINGS      CLEAR     72  63  73 SW7       29.92R
SISSETON         N/A     67  63  87 NW7       29.90R
$$

SDZ017-020-022-023-036>040-048>070-230500-
SOUTHEAST SOUTH DAKOTA

CITY           SKY/WX    TMP DP  RH WIND       PRES   REMARKS
SIOUX FALLS    CLEAR     71  67  87 SW3       29.92R
HURON          CLEAR     74  61  63 NW8       29.94R
CHAMBERLAIN    CLEAR     80  59  49 NE3       29.97R
MITCHELL       CLEAR     73  66  78 W5        29.93R
YANKTON        CLEAR     76  69  79 CALM      29.93S
$$

ABBREVIATIONS USED IN REMARKS
   TC - TEMPERATURE IN CELSIUS
  WCI - WIND CHILL INDEX
   HX - HEAT INDEX
  VSB - VISIBILITY





USA.gov is the U.S. government's official web portal to all federal, state and local government web resources and services.